Hyannis, MA

12:38 AM EST on February 25, 2017 (GMT -0500)
Barnstable Municipal-Boardman-Polando Field

Weather History for KHYA - January, 2013

Change the Weather History Date:

Friday, January 25, 2013

  Actual Average Record
Temperature  
Mean Temperature 16 °F -  
Max Temperature 24 °F 41 °F 58 °F (1967)
Min Temperature 9 °F 23 °F -4 °F (1935)
Degree Days  
Heating Degree Days 48    
Moisture  
Dew Point -2 °F    
Average Humidity 44    
Maximum Humidity 74    
Minimum Humidity 31    
Precipitation  
Precipitation 0.00 in - - ()
Sea Level Pressure  
Sea Level Pressure 30.18 in    
Wind  
Wind Speed 9 mph (WNW)    
Max Wind Speed 13 mph    
Max Gust Speed 22 mph    
Visibility 10 miles    
Events Snow    
Averages and records for this station are not official NWS values.
T = Trace of Precipitation, MM = Missing Value Source: NWS Daily Summary

Daily Weather History Graph

Daily Weather History Graph

Search for Another Location

Airport or City:

Trip Planner

Search our weather history database for the weather conditions in past years. The results will help you decide how hot, cold, wet, or windy it might be!

Date:

Astronomy

Jan. 25, 2013 Rise Set
Actual Time 6:59 AM EST 4:48 PM EST
Civil Twilight 6:29 AM EST 5:18 PM EST
Nautical Twilight 5:55 AM EST 5:51 PM EST
Astronomical Twilight 5:22 AM EST 6:24 PM EST
Moon 3:42 PM EST 5:36 AM EST
Length of Visible Light 10h 48m
Length of Day
9h 48m
Waxing Gibbous, 98% of the Moon is Illuminated
Jan 25
Waxing Gibbous
Jan 26
Full
Feb 3
Last Quarter
Feb 10
New
Feb 17
First Quarter

Hourly Weather History & Observations

Time (EST) Temp. Windchill Dew Point Humidity Pressure Visibility Wind Dir Wind Speed Gust Speed Precip Events Conditions
12:56 AM 12.0 °F -2.7 °F -9.0 °F 39% 30.19 in 10.0 mi West 12.7 mph - N/A   Clear
1:56 AM 10.9 °F -3.4 °F -9.0 °F 40% 30.22 in 10.0 mi WNW 11.5 mph 21.9 mph N/A   Clear
2:56 AM 10.9 °F -4.1 °F -9.0 °F 40% 30.23 in 10.0 mi WNW 12.7 mph 20.7 mph N/A   Clear
3:56 AM 10.0 °F -4.5 °F -9.0 °F 42% 30.23 in 10.0 mi West 11.5 mph 18.4 mph N/A   Clear
4:56 AM 10.0 °F -1.9 °F -9.0 °F 42% 30.25 in 10.0 mi West 8.1 mph - N/A   Clear
5:56 AM 9.0 °F -4.2 °F -9.0 °F 44% 30.26 in 10.0 mi WNW 9.2 mph 17.3 mph N/A   Clear
6:56 AM 9.0 °F -2.2 °F -8.0 °F 46% 30.25 in 10.0 mi WNW 6.9 mph - N/A   Clear
7:56 AM 10.0 °F -2.9 °F -8.0 °F 44% 30.26 in 10.0 mi WNW 9.2 mph 18.4 mph N/A   Clear
8:56 AM 12.9 °F 0.7 °F -8.0 °F 39% 30.28 in 10.0 mi WNW 9.2 mph 21.9 mph N/A   Clear
9:56 AM 16.0 °F 3.6 °F -7.1 °F 36% 30.28 in 10.0 mi NW 10.4 mph - N/A   Clear
10:56 AM 19.0 °F 9.0 °F -5.1 °F 34% 30.26 in 10.0 mi NW 8.1 mph 17.3 mph N/A   Clear
11:56 AM 19.9 °F 10.1 °F -5.1 °F 33% 30.23 in 10.0 mi NW 8.1 mph - N/A   Clear
12:56 PM 23.0 °F 17.0 °F -4.0 °F 31% 30.20 in 10.0 mi West 4.6 mph - N/A   Clear
1:56 PM 23.0 °F 13.1 °F -0.9 °F 35% 30.18 in 10.0 mi WSW 9.2 mph - N/A   Clear
2:56 PM 24.1 °F 17.0 °F -0.9 °F 34% 30.16 in 10.0 mi West 5.8 mph - N/A   Clear
3:56 PM 21.9 °F 13.4 °F 3.0 °F 44% 30.16 in 10.0 mi SW 6.9 mph - N/A   Clear
4:56 PM 21.9 °F 13.4 °F 3.0 °F 44% 30.15 in 10.0 mi WSW 6.9 mph - N/A   Clear
5:56 PM 21.0 °F - 5.0 °F 50% 30.14 in 10.0 mi Calm Calm - N/A   Clear
6:56 PM 19.9 °F - 7.0 °F 57% 30.13 in 10.0 mi Calm Calm - N/A   Mostly Cloudy
7:56 PM 21.9 °F - 3.9 °F 46% 30.13 in 10.0 mi Calm Calm - N/A   Overcast
8:56 PM 21.0 °F - 7.0 °F 55% 30.08 in 10.0 mi Calm Calm - N/A   Overcast
9:56 PM 21.9 °F - 6.1 °F 51% 30.08 in 10.0 mi Calm Calm - N/A   Overcast
10:56 PM 21.9 °F 13.4 °F 6.1 °F 51% 30.05 in 9.0 mi NW 6.9 mph - N/A   Overcast
11:56 PM 19.9 °F 14.9 °F 12.9 °F 74% 30.03 in 2.5 mi NW 3.5 mph - 0.00 in Snow Light Snow